owner,sensor,date,latitude,longitude,vertical_datum,wind_speed,wind_to_direction,wind_speed_of_gust,qcFlag 
NDBC,ioos:station:wmo:42012:1,2014-07-01T00:50:00Z,30.0650,-87.5550,5.0,7.0,260.0,8.0,'1111122,1111122,1111122' 
NDBC,ioos:station:wmo:42012:1,2014-07-01T02:50:00Z,30.0650,-87.5550,5.0,6.0,250.0,7.0,'1111122,1111122,1111122' 
NDBC,ioos:station:wmo:42012:1,2014-07-01T03:50:00Z,30.0650,-87.5550,5.0,7.0,260.0,8.0,'1111122,1111122,1111122' 
NDBC,ioos:station:wmo:42012:1,2014-07-01T04:50:00Z,30.0650,-87.5550,5.0,7.0,260.0,8.0,'1111122,1111122,1111122' 
NDBC,ioos:station:wmo:42012:1,2014-07-01T05:50:00Z,30.0650,-87.5550,5.0,7.0,260.0,9.0,'1111122,1111122,1111122' 
NDBC,ioos:station:wmo:42012:1,2014-07-01T06:50:00Z,30.0650,-87.5550,5.0,8.0,250.0,9.0,'1111122,1111122,1111122' 
NDBC,ioos:station:wmo:42012:1,2014-07-01T07:50:00Z,30.0650,-87.5550,5.0,7.0,270.0,8.0,'1111122,1111122,1111122' 
NDBC,ioos:station:wmo:42012:1,2014-07-01T08:50:00Z,30.0650,-87.5550,5.0,7.0,290.0,8.0,'1111122,1111122,1111122' 
NDBC,ioos:station:wmo:42012:1,2014-07-01T09:50:00Z,30.0650,-87.5550,5.0,6.0,300.0,7.0,'1111122,1111122,1111122' 
NDBC,ioos:station:wmo:42012:1,2014-07-01T10:50:00Z,30.0650,-87.5550,5.0,6.0,300.0,8.0,'1111122,1111122,1111122' 
NDBC,ioos:station:wmo:42012:1,2014-07-01T11:50:00Z,30.0650,-87.5550,5.0,6.0,300.0,7.0,'1111122,1111122,1111122' 
NDBC,ioos:station:wmo:42012:1,2014-07-01T12:50:00Z,30.0650,-87.5550,5.0,7.0,320.0,8.0,'1111122,1111122,1111122' 
NDBC,ioos:station:wmo:42012:1,2014-07-01T14:50:00Z,30.0650,-87.5550,5.0,7.0,310.0,9.0,'1111122,1111122,1111122' 
NDBC,ioos:station:wmo:42012:1,2014-07-01T15:50:00Z,30.0650,-87.5550,5.0,6.0,310.0,7.0,'1111122,1111122,1111122' 
NDBC,ioos:station:wmo:42012:1,2014-07-01T16:50:00Z,30.0650,-87.5550,5.0,4.0,310.0,5.0,'1111122,1111122,1111122' 
NDBC,ioos:station:wmo:42012:1,2014-07-01T17:50:00Z,30.0650,-87.5550,5.0,4.0,290.0,4.0,'1111122,1111122,1111122' 
NDBC,ioos:station:wmo:42012:1,2014-07-01T18:50:00Z,30.0650,-87.5550,5.0,4.0,270.0,4.0,'1111122,1111122,1111122' 
NDBC,ioos:station:wmo:42012:1,2014-07-01T19:50:00Z,30.0650,-87.5550,5.0,5.0,260.0,5.0,'1111122,1111122,1111122' 
NDBC,ioos:station:wmo:42012:1,2014-07-01T21:50:00Z,30.0650,-87.5550,5.0,6.0,260.0,7.0,'1111122,1111122,1111122' 
NDBC,ioos:station:wmo:42012:1,2014-07-01T22:50:00Z,30.0650,-87.5550,5.0,6.0,250.0,7.0,'1111122,1111122,1111122' 
NDBC,ioos:station:wmo:42012:1,2014-07-02T00:50:00Z,30.0650,-87.5550,5.0,6.0,250.0,7.0,'1111122,1111122,1111122' 
NDBC,ioos:station:wmo:42012:1,2014-07-02T01:50:00Z,30.0650,-87.5550,5.0,7.0,260.0,8.0,'1111122,1111122,1111122' 
NDBC,ioos:station:wmo:42012:1,2014-07-02T02:50:00Z,30.0650,-87.5550,5.0,6.0,260.0,7.0,'1111122,1111122,1111122' 
NDBC,ioos:station:wmo:42012:1,2014-07-02T03:50:00Z,30.0650,-87.5550,5.0,6.0,260.0,7.0,'1111122,1111122,1111122' 
NDBC,ioos:station:wmo:42012:1,2014-07-02T04:50:00Z,30.0650,-87.5550,5.0,7.0,280.0,8.0,'1111122,1111122,1111122' 
NDBC,ioos:station:wmo:42012:1,2014-07-02T05:50:00Z,30.0650,-87.5550,5.0,7.0,300.0,8.0,'1111122,1111122,1111122' 
NDBC,ioos:station:wmo:42012:1,2014-07-02T06:50:00Z,30.0650,-87.5550,5.0,7.0,310.0,8.0,'1111122,1111122,1111122' 
NDBC,ioos:station:wmo:42012:1,2014-07-02T07:50:00Z,30.0650,-87.5550,5.0,6.0,320.0,7.0,'1111122,1111122,1111122' 
NDBC,ioos:station:wmo:42012:1,2014-07-02T08:50:00Z,30.0650,-87.5550,5.0,6.0,340.0,7.0,'1111122,1111122,1111122' 
NDBC,ioos:station:wmo:42012:1,2014-07-02T09:50:00Z,30.0650,-87.5550,5.0,6.0,340.0,8.0,'1111122,1111122,1111122' 
NDBC,ioos:station:wmo:42012:1,2014-07-02T10:50:00Z,30.0650,-87.5550,5.0,6.0,350.0,7.0,'1111122,1111122,1111122' 
NDBC,ioos:station:wmo:42012:1,2014-07-02T11:50:00Z,30.0650,-87.5550,5.0,5.0,340.0,6.0,'1111122,1111122,1111122' 
NDBC,ioos:station:wmo:42012:1,2014-07-02T13:50:00Z,30.0650,-87.5550,5.0,3.0,360.0,4.0,'1111122,1111122,1111122' 
NDBC,ioos:station:wmo:42012:1,2014-07-02T14:50:00Z,30.0650,-87.5550,5.0,3.0,340.0,4.0,'1111122,1111122,1111122' 
NDBC,ioos:station:wmo:42012:1,2014-07-02T16:50:00Z,30.0650,-87.5550,5.0,2.0,290.0,2.0,'1111122,1111122,1111122' 
NDBC,ioos:station:wmo:42012:1,2014-07-02T17:50:00Z,30.0650,-87.5550,5.0,0.0,-9999.0,1.0,'1114422,1111122,1111122' 
NDBC,ioos:station:wmo:42012:1,2014-07-02T18:50:00Z,30.0650,-87.5550,5.0,2.0,280.0,3.0,'1111122,1111122,1111122' 
NDBC,ioos:station:wmo:42012:1,2014-07-02T19:50:00Z,30.0650,-87.5550,5.0,3.0,260.0,3.0,'1111122,1111122,1111122' 
NDBC,ioos:station:wmo:42012:1,2014-07-02T20:50:00Z,30.0650,-87.5550,5.0,5.0,250.0,5.0,'1111122,1111122,1111122' 
NDBC,ioos:station:wmo:42012:1,2014-07-02T21:50:00Z,30.0650,-87.5550,5.0,5.0,240.0,6.0,'1111122,1111122,1111122' 
NDBC,ioos:station:wmo:42012:1,2014-07-02T22:50:00Z,30.0650,-87.5550,5.0,5.0,240.0,6.0,'1111122,1111122,1111122' 
NDBC,ioos:station:wmo:42012:1,2014-07-02T23:50:00Z,30.0650,-87.5550,5.0,6.0,260.0,7.0,'1111122,1111122,1111122' 
NDBC,ioos:station:wmo:42012:1,2014-07-03T01:50:00Z,30.0650,-87.5550,5.0,6.0,260.0,7.0,'1111122,1111122,1111122' 
NDBC,ioos:station:wmo:42012:1,2014-07-03T02:50:00Z,30.0650,-87.5550,5.0,8.0,280.0,10.0,'1111122,1111122,1111122' 
NDBC,ioos:station:wmo:42012:1,2014-07-03T04:50:00Z,30.0650,-87.5550,5.0,4.0,300.0,5.0,'1111122,1111122,1111122' 
NDBC,ioos:station:wmo:42012:1,2014-07-03T05:50:00Z,30.0650,-87.5550,5.0,7.0,10.0,9.0,'1111122,1111122,1111122' 
NDBC,ioos:station:wmo:42012:1,2014-07-03T07:50:00Z,30.0650,-87.5550,5.0,5.0,360.0,7.0,'1111122,1111122,1111122' 
NDBC,ioos:station:wmo:42012:1,2014-07-03T08:50:00Z,30.0650,-87.5550,5.0,7.0,360.0,8.0,'1111122,1111122,1111122' 
NDBC,ioos:station:wmo:42012:1,2014-07-03T09:50:00Z,30.0650,-87.5550,5.0,6.0,10.0,8.0,'1111122,1111122,1111122' 
NDBC,ioos:station:wmo:42012:1,2014-07-03T10:50:00Z,30.0650,-87.5550,5.0,6.0,10.0,7.0,'1111122,1111122,1111122' 
NDBC,ioos:station:wmo:42012:1,2014-07-03T12:50:00Z,30.0650,-87.5550,5.0,6.0,20.0,7.0,'1111122,1111122,1111122' 
NDBC,ioos:station:wmo:42012:1,2014-07-03T13:50:00Z,30.0650,-87.5550,5.0,8.0,10.0,9.0,'1111122,1111122,1111122' 
NDBC,ioos:station:wmo:42012:1,2014-07-03T14:50:00Z,30.0650,-87.5550,5.0,7.0,10.0,8.0,'1111122,1111122,1111122' 
NDBC,ioos:station:wmo:42012:1,2014-07-03T15:50:00Z,30.0650,-87.5550,5.0,7.0,360.0,7.0,'1111122,1111122,1111122' 
NDBC,ioos:station:wmo:42012:1,2014-07-03T16:50:00Z,30.0650,-87.5550,5.0,5.0,10.0,6.0,'1111122,1111122,1111122' 
NDBC,ioos:station:wmo:42012:1,2014-07-03T18:50:00Z,30.0650,-87.5550,5.0,2.0,40.0,3.0,'1111122,1111122,1111122' 
NDBC,ioos:station:wmo:42012:1,2014-07-03T19:50:00Z,30.0650,-87.5550,5.0,0.0,-9999.0,1.0,'1114422,1111122,1111122' 
NDBC,ioos:station:wmo:42012:1,2014-07-03T20:50:00Z,30.0650,-87.5550,5.0,3.0,250.0,3.0,'1111122,1111122,1111122' 
NDBC,ioos:station:wmo:42012:1,2014-07-03T21:50:00Z,30.0650,-87.5550,5.0,4.0,260.0,5.0,'1111122,1111122,1111122' 
NDBC,ioos:station:wmo:42012:1,2014-07-03T22:50:00Z,30.0650,-87.5550,5.0,5.0,250.0,6.0,'1111122,1111122,1111122' 
NDBC,ioos:station:wmo:42012:1,2014-07-04T00:50:00Z,30.0650,-87.5550,5.0,5.0,10.0,5.0,'1111122,1111122,1111122' 
NDBC,ioos:station:wmo:42012:1,2014-07-04T01:50:00Z,30.0650,-87.5550,5.0,6.0,360.0,8.0,'1111122,1111122,1111122' 
NDBC,ioos:station:wmo:42012:1,2014-07-04T02:50:00Z,30.0650,-87.5550,5.0,6.0,350.0,8.0,'1111122,1111122,1111122' 
NDBC,ioos:station:wmo:42012:1,2014-07-04T03:50:00Z,30.0650,-87.5550,5.0,6.0,360.0,7.0,'1111122,1111122,1111122' 
NDBC,ioos:station:wmo:42012:1,2014-07-04T05:50:00Z,30.0650,-87.5550,5.0,6.0,20.0,7.0,'1111122,1111122,1111122' 
NDBC,ioos:station:wmo:42012:1,2014-07-04T06:50:00Z,30.0650,-87.5550,5.0,5.0,30.0,6.0,'1111122,1111122,1111122' 
NDBC,ioos:station:wmo:42012:1,2014-07-04T08:50:00Z,30.0650,-87.5550,5.0,7.0,20.0,8.0,'1111122,1111122,1111122' 
NDBC,ioos:station:wmo:42012:1,2014-07-04T10:50:00Z,30.0650,-87.5550,5.0,8.0,30.0,8.0,'1111122,1111122,1111122' 
NDBC,ioos:station:wmo:42012:1,2014-07-04T11:50:00Z,30.0650,-87.5550,5.0,8.0,30.0,9.0,'1111122,1111122,1111122' 
NDBC,ioos:station:wmo:42012:1,2014-07-04T12:50:00Z,30.0650,-87.5550,5.0,7.0,30.0,8.0,'1111122,1111122,1111122' 
NDBC,ioos:station:wmo:42012:1,2014-07-04T13:50:00Z,30.0650,-87.5550,5.0,5.0,40.0,6.0,'1111122,1111122,1111122' 
NDBC,ioos:station:wmo:42012:1,2014-07-04T14:50:00Z,30.0650,-87.5550,5.0,5.0,40.0,6.0,'1111122,1111122,1111122' 
NDBC,ioos:station:wmo:42012:1,2014-07-04T15:50:00Z,30.0650,-87.5550,5.0,3.0,40.0,4.0,'1111122,1111122,1111122' 
NDBC,ioos:station:wmo:42012:1,2014-07-04T16:50:00Z,30.0650,-87.5550,5.0,2.0,40.0,3.0,'1111122,1111122,1111122' 
NDBC,ioos:station:wmo:42012:1,2014-07-04T17:50:00Z,30.0650,-87.5550,5.0,0.0,-9999.0,1.0,'1114422,1111122,1111122' 
NDBC,ioos:station:wmo:42012:1,2014-07-04T18:50:00Z,30.0650,-87.5550,5.0,3.0,270.0,4.0,'1111122,1111122,1111122' 
NDBC,ioos:station:wmo:42012:1,2014-07-04T19:50:00Z,30.0650,-87.5550,5.0,5.0,290.0,7.0,'1111122,1111122,1111122' 
NDBC,ioos:station:wmo:42012:1,2014-07-04T20:50:00Z,30.0650,-87.5550,5.0,5.0,290.0,6.0,'1111122,1111122,1111122' 
NDBC,ioos:station:wmo:42012:1,2014-07-04T21:50:00Z,30.0650,-87.5550,5.0,7.0,280.0,8.0,'1111122,1111122,1111122' 
NDBC,ioos:station:wmo:42012:1,2014-07-04T22:50:00Z,30.0650,-87.5550,5.0,7.0,300.0,9.0,'1111122,1111122,1111122' 
NDBC,ioos:station:wmo:42012:1,2014-07-04T23:50:00Z,30.0650,-87.5550,5.0,7.0,320.0,9.0,'1111122,1111122,1111122' 
NDBC,ioos:station:wmo:42012:1,2014-07-05T00:50:00Z,30.0650,-87.5550,5.0,6.0,330.0,7.0,'1111122,1111122,1111122' 
NDBC,ioos:station:wmo:42012:1,2014-07-05T01:50:00Z,30.0650,-87.5550,5.0,7.0,350.0,8.0,'1111122,1111122,1111122' 
NDBC,ioos:station:wmo:42012:1,2014-07-05T02:50:00Z,30.0650,-87.5550,5.0,8.0,360.0,9.0,'1111122,1111122,1111122' 
NDBC,ioos:station:wmo:42012:1,2014-07-05T03:50:00Z,30.0650,-87.5550,5.0,9.0,360.0,10.0,'1111122,1111122,1111122' 
NDBC,ioos:station:wmo:42012:1,2014-07-05T04:50:00Z,30.0650,-87.5550,5.0,8.0,20.0,9.0,'1111122,1111122,1111122' 
NDBC,ioos:station:wmo:42012:1,2014-07-05T06:50:00Z,30.0650,-87.5550,5.0,6.0,10.0,7.0,'1111122,1111122,1111122' 
NDBC,ioos:station:wmo:42012:1,2014-07-05T07:50:00Z,30.0650,-87.5550,5.0,6.0,10.0,7.0,'1111122,1111122,1111122' 
NDBC,ioos:station:wmo:42012:1,2014-07-05T08:50:00Z,30.0650,-87.5550,5.0,6.0,10.0,7.0,'1111122,1111122,1111122' 
NDBC,ioos:station:wmo:42012:1,2014-07-05T09:50:00Z,30.0650,-87.5550,5.0,6.0,360.0,7.0,'1111122,1111122,1111122' 
NDBC,ioos:station:wmo:42012:1,2014-07-05T10:50:00Z,30.0650,-87.5550,5.0,7.0,10.0,8.0,'1111122,1111122,1111122' 
NDBC,ioos:station:wmo:42012:1,2014-07-05T12:50:00Z,30.0650,-87.5550,5.0,5.0,20.0,6.0,'1111122,1111122,1111122' 
NDBC,ioos:station:wmo:42012:1,2014-07-05T13:50:00Z,30.0650,-87.5550,5.0,4.0,20.0,5.0,'1111122,1111122,1111122' 
NDBC,ioos:station:wmo:42012:1,2014-07-05T15:50:00Z,30.0650,-87.5550,5.0,4.0,20.0,4.0,'1111122,1111122,1111122' 
NDBC,ioos:station:wmo:42012:1,2014-07-05T16:50:00Z,30.0650,-87.5550,5.0,2.0,20.0,3.0,'1111122,1111122,1111122' 
NDBC,ioos:station:wmo:42012:1,2014-07-05T18:50:00Z,30.0650,-87.5550,5.0,3.0,240.0,4.0,'1111122,1111122,1111122' 
NDBC,ioos:station:wmo:42012:1,2014-07-05T19:50:00Z,30.0650,-87.5550,5.0,4.0,220.0,5.0,'1111122,1111122,1111122' 
NDBC,ioos:station:wmo:42012:1,2014-07-05T20:50:00Z,30.0650,-87.5550,5.0,5.0,240.0,6.0,'1111122,1111122,1111122' 
NDBC,ioos:station:wmo:42012:1,2014-07-05T21:50:00Z,30.0650,-87.5550,5.0,5.0,250.0,6.0,'1111122,1111122,1111122' 
NDBC,ioos:station:wmo:42012:1,2014-07-05T22:50:00Z,30.0650,-87.5550,5.0,5.0,260.0,6.0,'1111122,1111122,1111122' 
NDBC,ioos:station:wmo:42012:1,2014-07-06T00:50:00Z,30.0650,-87.5550,5.0,4.0,270.0,5.0,'1111122,1111122,1111122' 
NDBC,ioos:station:wmo:42012:1,2014-07-06T02:50:00Z,30.0650,-87.5550,5.0,3.0,270.0,4.0,'1111122,1111122,1111122' 
NDBC,ioos:station:wmo:42012:1,2014-07-06T03:50:00Z,30.0650,-87.5550,5.0,5.0,290.0,7.0,'1111122,1111122,1111122' 
NDBC,ioos:station:wmo:42012:1,2014-07-06T04:50:00Z,30.0650,-87.5550,5.0,7.0,290.0,8.0,'1111122,1111122,1111122' 
NDBC,ioos:station:wmo:42012:1,2014-07-06T05:50:00Z,30.0650,-87.5550,5.0,7.0,300.0,8.0,'1111122,1111122,1111122' 
NDBC,ioos:station:wmo:42012:1,2014-07-06T06:50:00Z,30.0650,-87.5550,5.0,6.0,310.0,7.0,'1111122,1111122,1111122' 
NDBC,ioos:station:wmo:42012:1,2014-07-06T07:50:00Z,30.0650,-87.5550,5.0,5.0,330.0,7.0,'1111122,1111122,1111122' 
NDBC,ioos:station:wmo:42012:1,2014-07-06T08:50:00Z,30.0650,-87.5550,5.0,5.0,330.0,6.0,'1111122,1111122,1111122' 
NDBC,ioos:station:wmo:42012:1,2014-07-06T09:50:00Z,30.0650,-87.5550,5.0,6.0,330.0,7.0,'1111122,1111122,1111122' 
NDBC,ioos:station:wmo:42012:1,2014-07-06T10:50:00Z,30.0650,-87.5550,5.0,7.0,340.0,8.0,'1111122,1111122,1111122' 
NDBC,ioos:station:wmo:42012:1,2014-07-06T11:50:00Z,30.0650,-87.5550,5.0,5.0,350.0,6.0,'1111122,1111122,1111122' 
NDBC,ioos:station:wmo:42012:1,2014-07-06T12:50:00Z,30.0650,-87.5550,5.0,5.0,350.0,6.0,'1111122,1111122,1111122' 
NDBC,ioos:station:wmo:42012:1,2014-07-06T13:50:00Z,30.0650,-87.5550,5.0,4.0,350.0,5.0,'1111122,1111122,1111122' 
NDBC,ioos:station:wmo:42012:1,2014-07-06T14:50:00Z,30.0650,-87.5550,5.0,2.0,20.0,2.0,'1111122,1111122,1111122' 
NDBC,ioos:station:wmo:42012:1,2014-07-06T15:50:00Z,30.0650,-87.5550,5.0,1.0,30.0,1.0,'1111122,1111122,1111122' 
NDBC,ioos:station:wmo:42012:1,2014-07-06T16:50:00Z,30.0650,-87.5550,5.0,0.0,-9999.0,1.0,'1114422,1111122,1111122' 
NDBC,ioos:station:wmo:42012:1,2014-07-06T17:50:00Z,30.0650,-87.5550,5.0,1.0,240.0,1.0,'1111122,1111122,1111122' 
NDBC,ioos:station:wmo:42012:1,2014-07-06T19:50:00Z,30.0650,-87.5550,5.0,3.0,240.0,4.0,'1111122,1111122,1111122' 
NDBC,ioos:station:wmo:42012:1,2014-07-06T20:50:00Z,30.0650,-87.5550,5.0,4.0,240.0,5.0,'1111122,1111122,1111122' 
NDBC,ioos:station:wmo:42012:1,2014-07-06T21:50:00Z,30.0650,-87.5550,5.0,5.0,240.0,5.0,'1111122,1111122,1111122' 
NDBC,ioos:station:wmo:42012:1,2014-07-06T22:50:00Z,30.0650,-87.5550,5.0,6.0,260.0,6.0,'1111122,1111122,1111122' 
NDBC,ioos:station:wmo:42012:1,2014-07-06T23:50:00Z,30.0650,-87.5550,5.0,6.0,260.0,7.0,'1111122,1111122,1111122' 
NDBC,ioos:station:wmo:42012:1,2014-07-07T00:50:00Z,30.0650,-87.5550,5.0,6.0,260.0,7.0,'1111122,1111122,1111122' 
NDBC,ioos:station:wmo:42012:1,2014-07-07T01:50:00Z,30.0650,-87.5550,5.0,6.0,260.0,7.0,'1111122,1111122,1111122' 
NDBC,ioos:station:wmo:42012:1,2014-07-07T03:50:00Z,30.0650,-87.5550,5.0,6.0,260.0,6.0,'1111122,1111122,1111122' 
NDBC,ioos:station:wmo:42012:1,2014-07-07T04:50:00Z,30.0650,-87.5550,5.0,6.0,270.0,7.0,'1111122,1111122,1111122' 
NDBC,ioos:station:wmo:42012:1,2014-07-07T05:50:00Z,30.0650,-87.5550,5.0,6.0,270.0,7.0,'1111122,1111122,1111122' 
NDBC,ioos:station:wmo:42012:1,2014-07-07T06:50:00Z,30.0650,-87.5550,5.0,5.0,270.0,6.0,'1111122,1111122,1111122' 
NDBC,ioos:station:wmo:42012:1,2014-07-07T07:50:00Z,30.0650,-87.5550,5.0,6.0,270.0,7.0,'1111122,1111122,1111122' 
NDBC,ioos:station:wmo:42012:1,2014-07-07T08:50:00Z,30.0650,-87.5550,5.0,6.0,270.0,7.0,'1111122,1111122,1111122' 
NDBC,ioos:station:wmo:42012:1,2014-07-07T09:50:00Z,30.0650,-87.5550,5.0,5.0,270.0,6.0,'1111122,1111122,1111122' 
NDBC,ioos:station:wmo:42012:1,2014-07-07T11:50:00Z,30.0650,-87.5550,5.0,5.0,260.0,6.0,'1111122,1111122,1111122' 
NDBC,ioos:station:wmo:42012:1,2014-07-07T12:50:00Z,30.0650,-87.5550,5.0,4.0,270.0,6.0,'1111122,1111122,1111122' 
NDBC,ioos:station:wmo:42012:1,2014-07-07T13:50:00Z,30.0650,-87.5550,5.0,5.0,270.0,5.0,'1111122,1111122,1111122' 
NDBC,ioos:station:wmo:42012:1,2014-07-07T14:50:00Z,30.0650,-87.5550,5.0,2.0,320.0,3.0,'1111122,1111122,1111122' 
NDBC,ioos:station:wmo:42012:1,2014-07-07T16:50:00Z,30.0650,-87.5550,5.0,2.0,280.0,3.0,'1111122,1111122,1111122' 
NDBC,ioos:station:wmo:42012:1,2014-07-07T17:50:00Z,30.0650,-87.5550,5.0,2.0,220.0,4.0,'1111122,1111122,1111122' 
NDBC,ioos:station:wmo:42012:1,2014-07-07T19:50:00Z,30.0650,-87.5550,5.0,4.0,210.0,5.0,'1111122,1111122,1111122' 
NDBC,ioos:station:wmo:42012:1,2014-07-07T21:50:00Z,30.0650,-87.5550,5.0,6.0,200.0,7.0,'1111122,1111122,1111122' 
NDBC,ioos:station:wmo:42012:1,2014-07-07T22:50:00Z,30.0650,-87.5550,5.0,6.0,210.0,7.0,'1111122,1111122,1111122' 
NDBC,ioos:station:wmo:42012:1,2014-07-07T23:50:00Z,30.0650,-87.5550,5.0,6.0,210.0,8.0,'1111122,1111122,1111122' 
NDBC,ioos:station:wmo:42012:1,2014-07-08T00:50:00Z,30.0650,-87.5550,5.0,7.0,220.0,8.0,'1111122,1111122,1111122' 
NDBC,ioos:station:wmo:42012:1,2014-07-08T02:50:00Z,30.0650,-87.5550,5.0,7.0,220.0,8.0,'1111122,1111122,1111122' 
NDBC,ioos:station:wmo:42012:1,2014-07-08T03:50:00Z,30.0650,-87.5550,5.0,6.0,230.0,8.0,'1111122,1111122,1111122' 
NDBC,ioos:station:wmo:42012:1,2014-07-08T04:50:00Z,30.0650,-87.5550,5.0,7.0,240.0,8.0,'1111122,1111122,1111122' 
NDBC,ioos:station:wmo:42012:1,2014-07-08T05:50:00Z,30.0650,-87.5550,5.0,6.0,250.0,8.0,'1111122,1111122,1111122' 
NDBC,ioos:station:wmo:42012:1,2014-07-08T06:50:00Z,30.0650,-87.5550,5.0,6.0,260.0,7.0,'1111122,1111122,1111122' 
NDBC,ioos:station:wmo:42012:1,2014-07-08T07:50:00Z,30.0650,-87.5550,5.0,6.0,250.0,7.0,'1111122,1111122,1111122' 
NDBC,ioos:station:wmo:42012:1,2014-07-08T08:50:00Z,30.0650,-87.5550,5.0,5.0,250.0,6.0,'1111122,1111122,1111122' 
NDBC,ioos:station:wmo:42012:1,2014-07-08T10:50:00Z,30.0650,-87.5550,5.0,6.0,280.0,7.0,'1111122,1111122,1111122' 
NDBC,ioos:station:wmo:42012:1,2014-07-08T11:50:00Z,30.0650,-87.5550,5.0,5.0,290.0,6.0,'1111122,1111122,1111122' 
NDBC,ioos:station:wmo:42012:1,2014-07-08T12:50:00Z,30.0650,-87.5550,5.0,4.0,290.0,5.0,'1111122,1111122,1111122' 
NDBC,ioos:station:wmo:42012:1,2014-07-08T13:50:00Z,30.0650,-87.5550,5.0,3.0,300.0,3.0,'1111122,1111122,1111122' 
NDBC,ioos:station:wmo:42012:1,2014-07-08T14:50:00Z,30.0650,-87.5550,5.0,1.0,280.0,2.0,'1111122,1111122,1111122' 
NDBC,ioos:station:wmo:42012:1,2014-07-08T15:50:00Z,30.0650,-87.5550,5.0,1.0,270.0,2.0,'1111122,1111122,1111122' 
NDBC,ioos:station:wmo:42012:1,2014-07-08T17:50:00Z,30.0650,-87.5550,5.0,2.0,210.0,3.0,'1111122,1111122,1111122' 
NDBC,ioos:station:wmo:42012:1,2014-07-08T19:50:00Z,30.0650,-87.5550,5.0,4.0,230.0,5.0,'1111122,1111122,1111122' 
NDBC,ioos:station:wmo:42012:1,2014-07-08T20:50:00Z,30.0650,-87.5550,5.0,4.0,210.0,5.0,'1111122,1111122,1111122' 
NDBC,ioos:station:wmo:42012:1,2014-07-08T21:50:00Z,30.0650,-87.5550,5.0,4.0,210.0,5.0,'1111122,1111122,1111122' 
NDBC,ioos:station:wmo:42012:1,2014-07-08T22:50:00Z,30.0650,-87.5550,5.0,6.0,220.0,8.0,'1111122,1111122,1111122' 
NDBC,ioos:station:wmo:42012:1,2014-07-09T00:50:00Z,30.0650,-87.5550,5.0,7.0,230.0,9.0,'1111122,1111122,1111122' 
NDBC,ioos:station:wmo:42012:1,2014-07-09T01:50:00Z,30.0650,-87.5550,5.0,7.0,230.0,8.0,'1111122,1111122,1111122' 
NDBC,ioos:station:wmo:42012:1,2014-07-09T02:50:00Z,30.0650,-87.5550,5.0,7.0,230.0,8.0,'1111122,1111122,1111122' 
NDBC,ioos:station:wmo:42012:1,2014-07-09T03:50:00Z,30.0650,-87.5550,5.0,6.0,210.0,7.0,'1111122,1111122,1111122' 
NDBC,ioos:station:wmo:42012:1,2014-07-09T04:50:00Z,30.0650,-87.5550,5.0,5.0,220.0,7.0,'1111122,1111122,1111122' 
NDBC,ioos:station:wmo:42012:1,2014-07-09T05:50:00Z,30.0650,-87.5550,5.0,7.0,230.0,8.0,'1111122,1111122,1111122' 
NDBC,ioos:station:wmo:42012:1,2014-07-09T06:50:00Z,30.0650,-87.5550,5.0,6.0,250.0,8.0,'1111122,1111122,1111122' 
NDBC,ioos:station:wmo:42012:1,2014-07-09T08:50:00Z,30.0650,-87.5550,5.0,8.0,250.0,9.0,'1111122,1111122,1111122' 
NDBC,ioos:station:wmo:42012:1,2014-07-09T09:50:00Z,30.0650,-87.5550,5.0,6.0,260.0,7.0,'1111122,1111122,1111122' 
NDBC,ioos:station:wmo:42012:1,2014-07-09T10:50:00Z,30.0650,-87.5550,5.0,7.0,260.0,9.0,'1111122,1111122,1111122' 
NDBC,ioos:station:wmo:42012:1,2014-07-09T12:50:00Z,30.0650,-87.5550,5.0,6.0,250.0,7.0,'1111122,1111122,1111122' 
NDBC,ioos:station:wmo:42012:1,2014-07-09T13:50:00Z,30.0650,-87.5550,5.0,5.0,270.0,6.0,'1111122,1111122,1111122' 
NDBC,ioos:station:wmo:42012:1,2014-07-09T14:50:00Z,30.0650,-87.5550,5.0,8.0,300.0,11.0,'1111122,1111122,1111122' 
NDBC,ioos:station:wmo:42012:1,2014-07-09T15:50:00Z,30.0650,-87.5550,5.0,4.0,290.0,5.0,'1111122,1111122,1111122' 
NDBC,ioos:station:wmo:42012:1,2014-07-09T17:50:00Z,30.0650,-87.5550,5.0,4.0,270.0,5.0,'1111122,1111122,1111122' 
NDBC,ioos:station:wmo:42012:1,2014-07-09T18:50:00Z,30.0650,-87.5550,5.0,5.0,250.0,7.0,'1111122,1111122,1111122' 
NDBC,ioos:station:wmo:42012:1,2014-07-09T19:50:00Z,30.0650,-87.5550,5.0,6.0,260.0,7.0,'1111122,1111122,1111122' 
NDBC,ioos:station:wmo:42012:1,2014-07-09T20:50:00Z,30.0650,-87.5550,5.0,5.0,250.0,6.0,'1111122,1111122,1111122' 
NDBC,ioos:station:wmo:42012:1,2014-07-09T21:50:00Z,30.0650,-87.5550,5.0,6.0,240.0,7.0,'1111122,1111122,1111122' 
NDBC,ioos:station:wmo:42012:1,2014-07-09T22:50:00Z,30.0650,-87.5550,5.0,6.0,230.0,7.0,'1111122,1111122,1111122' 
NDBC,ioos:station:wmo:42012:1,2014-07-09T23:50:00Z,30.0650,-87.5550,5.0,5.0,280.0,6.0,'1111122,1111122,1111122' 
NDBC,ioos:station:wmo:42012:1,2014-07-10T00:50:00Z,30.0650,-87.5550,5.0,6.0,270.0,7.0,'1111122,1111122,1111122' 
NDBC,ioos:station:wmo:42012:1,2014-07-10T01:50:00Z,30.0650,-87.5550,5.0,2.0,270.0,3.0,'1111122,1111122,1111122' 
NDBC,ioos:station:wmo:42012:1,2014-07-10T02:50:00Z,30.0650,-87.5550,5.0,2.0,220.0,3.0,'1111122,1111122,1111122' 
NDBC,ioos:station:wmo:42012:1,2014-07-10T04:50:00Z,30.0650,-87.5550,5.0,5.0,240.0,6.0,'1111122,1111122,1111122' 
NDBC,ioos:station:wmo:42012:1,2014-07-10T05:50:00Z,30.0650,-87.5550,5.0,5.0,240.0,6.0,'1111122,1111122,1111122' 
NDBC,ioos:station:wmo:42012:1,2014-07-10T06:50:00Z,30.0650,-87.5550,5.0,5.0,240.0,6.0,'1111122,1111122,1111122' 
NDBC,ioos:station:wmo:42012:1,2014-07-10T07:50:00Z,30.0650,-87.5550,5.0,6.0,260.0,7.0,'1111122,1111122,1111122' 
NDBC,ioos:station:wmo:42012:1,2014-07-10T08:50:00Z,30.0650,-87.5550,5.0,6.0,210.0,7.0,'1111122,1111122,1111122' 
NDBC,ioos:station:wmo:42012:1,2014-07-10T10:50:00Z,30.0650,-87.5550,5.0,5.0,280.0,6.0,'1111122,1111122,1111122' 
NDBC,ioos:station:wmo:42012:1,2014-07-10T11:50:00Z,30.0650,-87.5550,5.0,5.0,290.0,5.0,'1111122,1111122,1111122' 
NDBC,ioos:station:wmo:42012:1,2014-07-10T12:50:00Z,30.0650,-87.5550,5.0,5.0,300.0,5.0,'1111122,1111122,1111122' 
NDBC,ioos:station:wmo:42012:1,2014-07-10T13:50:00Z,30.0650,-87.5550,5.0,4.0,300.0,5.0,'1111122,1111122,1111122' 
NDBC,ioos:station:wmo:42012:1,2014-07-10T14:50:00Z,30.0650,-87.5550,5.0,5.0,300.0,6.0,'1111122,1111122,1111122' 
NDBC,ioos:station:wmo:42012:1,2014-07-10T15:50:00Z,30.0650,-87.5550,5.0,4.0,300.0,4.0,'1111122,1111122,1111122' 
NDBC,ioos:station:wmo:42012:1,2014-07-10T17:50:00Z,30.0650,-87.5550,5.0,4.0,260.0,5.0,'1111122,1111122,1111122' 
NDBC,ioos:station:wmo:42012:1,2014-07-10T18:50:00Z,30.0650,-87.5550,5.0,5.0,240.0,5.0,'1111122,1111122,1111122' 
NDBC,ioos:station:wmo:42012:1,2014-07-10T19:50:00Z,30.0650,-87.5550,5.0,6.0,250.0,7.0,'1111122,1111122,1111122' 
NDBC,ioos:station:wmo:42012:1,2014-07-10T20:50:00Z,30.0650,-87.5550,5.0,8.0,350.0,9.0,'1111122,1111122,1111122' 
NDBC,ioos:station:wmo:42012:1,2014-07-10T21:50:00Z,30.0650,-87.5550,5.0,6.0,20.0,6.0,'1111122,1111122,1111122' 
NDBC,ioos:station:wmo:42012:1,2014-07-10T22:50:00Z,30.0650,-87.5550,5.0,3.0,360.0,4.0,'1111122,1111122,1111122' 
NDBC,ioos:station:wmo:42012:1,2014-07-10T23:50:00Z,30.0650,-87.5550,5.0,1.0,350.0,2.0,'1111122,1111122,1111122' 
NDBC,ioos:station:wmo:42012:1,2014-07-11T01:50:00Z,30.0650,-87.5550,5.0,2.0,220.0,3.0,'1111122,1111122,1111122' 
NDBC,ioos:station:wmo:42012:1,2014-07-11T03:50:00Z,30.0650,-87.5550,5.0,1.0,270.0,2.0,'1111122,1111122,1111122' 
NDBC,ioos:station:wmo:42012:1,2014-07-11T04:50:00Z,30.0650,-87.5550,5.0,2.0,270.0,3.0,'1111122,1111122,1111122' 
NDBC,ioos:station:wmo:42012:1,2014-07-11T05:50:00Z,30.0650,-87.5550,5.0,3.0,230.0,4.0,'1111122,1111122,1111122' 
NDBC,ioos:station:wmo:42012:1,2014-07-11T06:50:00Z,30.0650,-87.5550,5.0,4.0,230.0,5.0,'1111122,1111122,1111122' 
NDBC,ioos:station:wmo:42012:1,2014-07-11T07:50:00Z,30.0650,-87.5550,5.0,4.0,240.0,5.0,'1111122,1111122,1111122' 
NDBC,ioos:station:wmo:42012:1,2014-07-11T08:50:00Z,30.0650,-87.5550,5.0,4.0,250.0,5.0,'1111122,1111122,1111122' 
NDBC,ioos:station:wmo:42012:1,2014-07-11T09:50:00Z,30.0650,-87.5550,5.0,4.0,270.0,5.0,'1111122,1111122,1111122' 
NDBC,ioos:station:wmo:42012:1,2014-07-11T11:50:00Z,30.0650,-87.5550,5.0,4.0,270.0,5.0,'1111122,1111122,1111122' 